Regional Weather Roundup
Issued by NWS Little Rock, AR

Home | Current Version | Previous Version | Text Only | Print | Product List | Glossary Off
Versions: 1 2 3 4 5 6 7 8 9 10 11 12 13 14 15 16 17 18 19 20 21 22 23 24 25 26 27 28 29 30 31

000
ASUS44 KLZK 070805
RWRLZK

WEATHER ROUNDUP FOR ARKANSAS
NATIONAL WEATHER SERVICE LITTLE ROCK AR
200 AM CST WED DEC 07 2016

NOTE: "FAIR" INDICATES FEW OR NO CLOUDS BELOW 12,000 FEET WITH NO
SIGNIFICANT WEATHER AND/OR OBSTRUCTIONS TO VISIBILITY.

ARZ001-003-010-029-070900-
NORTHWEST ARKANSAS

CITY           SKY/WX    TMP DP  RH WIND       PRES   REMARKS
FAYETTEVILLE   CLEAR     27  23  85 CALM      30.12R
FORT SMITH     CLOUDY    41  30  65 NE6       30.12R
HARRISON       CLEAR     28  22  78 CALM      30.12R
BENTONVILLE    PTCLDY    30  18  59 NE3       30.13R
ROGERS         MOCLDY    29  21  72 NE5       30.14R WCI  24
SILOAM SPGS    PTCLDY    30  19  64 NE5       30.12S WCI  25
HIGHFILL       PTCLDY    29  20  69 NE7       30.12R WCI  22
$$

ARZ004-005-016-070900-
NORTH CENTRAL ARKANSAS

CITY           SKY/WX    TMP DP  RH WIND       PRES   REMARKS
BATESVILLE     CLOUDY    37  32  81 CALM      30.14S
FLIPPIN        PTCLDY    34  21  60 N3        30.12R
MTN HOME       PTCLDY    30  25  81 CALM      30.13R
$$

ARZ040-041-070900-
WEST CENTRAL ARKANSAS

CITY           SKY/WX    TMP DP  RH WIND       PRES   REMARKS
MENA           CLOUDY    45  43  93 E5        30.09R
MOUNT IDA      CLOUDY    43  35  73 VRB3      30.07
$$

ARZ009-017-025-026-028-070900-
NORTHEAST ARKANSAS

CITY           SKY/WX    TMP DP  RH WIND       PRES   REMARKS
CORNING        FAIR      37  32  81 N5        30.16R
JONESBORO      PTCLDY    37  33  85 N3        30.14R
NEWPORT        CLOUDY    38  36  92 N5        30.14S
WALNUT RIDGE   PTCLDY    36  28  75 N6        30.14R
BLYTHEVILLE    PTCLDY    39  35  86 N8        30.14R
$$

ARZ022-023-033-042-044-070900-
CENTRAL ARKANSAS

CITY           SKY/WX    TMP DP  RH WIND       PRES   REMARKS
LITTLE ROCK    CLOUDY    42  37  82 NE9       30.12F
N LITTLE ROCK    N/A     41  36  81 E8        30.14R
JACKSONVILLE   CLOUDY    43  36  76 NE8       30.11S
SEARCY         CLOUDY    41  35  79 NE9       30.15S
HOT SPRINGS    CLOUDY    44  37  76 NE6       30.11R
RUSSELLVILLE   MOCLDY    33  32  96 CALM      30.12R
CLINTON        CLOUDY    34  32  93 CALM      30.15R
$$

ARZ036-070900-
EAST ARKANSAS

CITY           SKY/WX    TMP DP  RH WIND       PRES   REMARKS
WEST MEMPHIS   MOCLDY    41  38  89 N7        30.12R
$$

ARZ050-053-066-070-073-070900-
SOUTHWEST ARKANSAS

CITY           SKY/WX    TMP DP  RH WIND       PRES   REMARKS
ARKADELPHIA    CLOUDY    45  40  82 NE6       30.12R
CAMDEN         CLOUDY    45  39  81 NE5       30.10R
TEXARKANA      CLOUDY    48  45  89 NE8       30.08R
EL DORADO      CLOUDY    47  46  97 N6        30.08R
DE QUEEN       CLOUDY    47  43  86 E9        30.07R
$$

ARZ056-057-069-070900-
SOUTHEAST ARKANSAS

CITY           SKY/WX    TMP DP  RH WIND       PRES   REMARKS
PINE BLUFF     CLOUDY    44  36  73 NE12      30.11R
STUTTGART      CLOUDY    43  32  65 N13       30.12S
MONTICELLO     CLOUDY    45  40  82 NE8       30.09R

$$






USA.gov is the U.S. government's official web portal to all federal, state and local government web resources and services.